User: anonymous   Login
Location: Wilsall
(45.9940°N, 110.6590°W)
Time: 02:57:34
(UTC-07:00)
Language:

GP-B - Orbit

View from above orbital plane
View from above orbital plane
View from above satellite
View from above satellite

Ground track
Ground track

The orbit data is extracted from the following two-line orbital elements,

1 28230U 04014A   16345.53532258  .00000204  00000-0  25757-4 0  9992
2 28230  89.8533 125.5523 0003270  97.7228 262.4366 14.78494521681226
Epoch (UTC): 10 December 2016 12:50:51
Eccentricity: 0.0003270
inclination: 89.8533°
perigee height: 632 km
apogee height: 636 km
right ascension of ascending node: 125.5523°
argument of perigee: 97.7228°
revolutions per day: 14.78494521
mean anomaly at epoch: 262.4366°
orbit number at epoch: 68122

The dashed part of the orbit path shows where the satellite is in the earth's shadow,  

DLR